TimeCDT,TemperatureF,Dew PointF,Humidity,Sea Level PressureIn,VisibilityMPH,Wind Direction,Wind SpeedMPH,Gust SpeedMPH,PrecipitationIn,Events,Conditions,WindDirDegrees,DateUTC
12:53 AM,68.0,66.0,93,29.75,6.0,West,5.8,-,N/A,,Clear,260,2012-09-18 05:53:00
1:53 AM,66.9,66.0,97,29.74,6.0,West,4.6,-,N/A,,Partly Cloudy,280,2012-09-18 06:53:00
2:35 AM,66.2,66.2,100,29.74,6.0,WNW,3.5,-,N/A,,Scattered Clouds,300,2012-09-18 07:35:00
2:44 AM,66.2,66.2,100,29.74,5.0,WNW,3.5,-,N/A,,Mostly Cloudy,290,2012-09-18 07:44:00
2:53 AM,66.9,66.0,97,29.73,5.0,Calm,Calm,-,N/A,,Mostly Cloudy,0,2012-09-18 07:53:00
3:30 AM,68.0,64.4,88,29.75,6.0,NNW,11.5,-,N/A,,Overcast,340,2012-09-18 08:30:00
3:53 AM,66.9,64.0,90,29.75,7.0,NNW,19.6,24.2,N/A,,Overcast,340,2012-09-18 08:53:00
4:24 AM,64.4,60.8,88,29.77,10.0,North,13.8,-,N/A,,Mostly Cloudy,350,2012-09-18 09:24:00
4:53 AM,64.0,60.1,87,29.78,10.0,North,12.7,18.4,N/A,,Overcast,360,2012-09-18 09:53:00
5:05 AM,62.6,59.0,88,29.79,10.0,North,17.3,23.0,N/A,,Overcast,360,2012-09-18 10:05:00
5:39 AM,62.6,55.4,77,29.81,10.0,North,18.4,25.3,N/A,,Overcast,350,2012-09-18 10:39:00
5:53 AM,61.0,55.9,83,29.81,10.0,North,11.5,20.7,N/A,,Overcast,350,2012-09-18 10:53:00
6:53 AM,61.0,54.0,78,29.84,10.0,North,16.1,24.2,N/A,,Overcast,350,2012-09-18 11:53:00
7:45 AM,59.0,51.8,77,29.87,10.0,NNW,13.8,26.5,N/A,,Scattered Clouds,340,2012-09-18 12:45:00
7:53 AM,59.0,52.0,78,29.87,10.0,NNW,16.1,20.7,N/A,,Partly Cloudy,330,2012-09-18 12:53:00
8:53 AM,59.0,50.0,72,29.89,10.0,North,17.3,21.9,N/A,,Clear,350,2012-09-18 13:53:00
9:53 AM,61.0,48.0,62,29.91,10.0,North,15.0,21.9,N/A,,Clear,360,2012-09-18 14:53:00
10:53 AM,64.0,44.1,48,29.92,10.0,North,18.4,26.5,N/A,,Clear,360,2012-09-18 15:53:00
11:53 AM,66.0,44.1,45,29.94,10.0,North,16.1,23.0,N/A,,Clear,350,2012-09-18 16:53:00
12:53 PM,66.9,43.0,42,29.94,10.0,NNW,13.8,24.2,N/A,,Clear,330,2012-09-18 17:53:00
1:53 PM,68.0,41.0,37,29.95,10.0,NNW,13.8,24.2,N/A,,Clear,340,2012-09-18 18:53:00
2:53 PM,69.1,42.1,38,29.96,10.0,NNE,13.8,21.9,N/A,,Scattered Clouds,20,2012-09-18 19:53:00
3:53 PM,69.1,42.1,38,29.96,10.0,North,15.0,-,N/A,,Clear,10,2012-09-18 20:53:00
4:53 PM,68.0,42.1,39,29.96,10.0,NW,12.7,24.2,N/A,,Clear,320,2012-09-18 21:53:00
5:53 PM,66.9,42.1,40,29.97,10.0,NNW,11.5,-,N/A,,Clear,340,2012-09-18 22:53:00
6:53 PM,61.0,44.1,54,29.99,10.0,North,5.8,-,N/A,,Clear,350,2012-09-18 23:53:00
7:53 PM,60.1,44.1,55,30.01,10.0,North,3.5,-,N/A,,Clear,350,2012-09-19 00:53:00
8:53 PM,55.9,45.0,67,30.04,10.0,Calm,Calm,-,N/A,,Clear,0,2012-09-19 01:53:00
9:53 PM,50.0,46.9,89,30.06,10.0,Calm,Calm,-,N/A,,Clear,0,2012-09-19 02:53:00
10:53 PM,48.9,46.0,90,30.07,10.0,Calm,Calm,-,N/A,,Clear,0,2012-09-19 03:53:00
11:53 PM,48.0,46.0,93,30.09,10.0,Calm,Calm,-,N/A,,Clear,0,2012-09-19 04:53:00